| time (UTC) | temp C | wind direction | speed KPH | gust KPH | rain 1hr cm | rain 24hr cm | rain mn cm | humidity % | barometer mb |
| 20260504110123 | 4 | 171 | 0.0 | 0.0 | 0.00 | 0.00 | 0.00 | 75 | 1010.2 |
| 20260504081604 | 6 | 171 | 0.0 | 0.0 | 0.00 | 0.00 | 0.00 | 65 | 1009.9 |
| 20260504050013 | 12 | 171 | 0.0 | 0.0 | 0.00 | 0.00 | 0.00 | 47 | 1009.6 |
| 20260504044619 | 13 | 171 | 0.0 | 0.0 | 0.00 | 0.00 | 0.00 | 46 | 1009.4 |
| 20260504043121 | 13 | 171 | 0.0 | 0.0 | 0.00 | 0.00 | 0.00 | 46 | 1009.3 |
| 20260504041612 | 15 | 171 | 0.0 | 0.0 | 0.00 | 0.00 | 0.00 | 40 | 1009.1 |
| 20260504040125 | 15 | 171 | 0.0 | 0.0 | 0.00 | 0.00 | 0.00 | 38 | 1009.1 |
| 20260504034618 | 16 | 171 | 0.0 | 0.0 | 0.00 | 0.00 | 0.00 | 36 | 1008.9 |
| 20260504033119 | 17 | 171 | 0.0 | 0.0 | 0.00 | 0.00 | 0.00 | 35 | 1008.7 |
| 20260504031607 | 18 | 171 | 0.0 | 0.0 | 0.00 | 0.00 | 0.00 | 31 | 1008.7 |
| 20260504030026 | 20 | 171 | 0.0 | 0.0 | 0.00 | 0.00 | 0.00 | 29 | 1008.7 |
| 20260504024621 | 21 | 171 | 0.0 | 0.0 | 0.00 | 0.00 | 0.00 | 26 | 1008.6 |
| 20260504023115 | 22 | 171 | 0.0 | 0.0 | 0.00 | 0.00 | 0.00 | 26 | 1008.5 |
| 20260504021600 | 23 | 171 | 0.0 | 0.0 | 0.00 | 0.00 | 0.00 | 26 | 1008.4 |
| 20260504020009 | 23 | 121 | 1.6 | 0.0 | 0.00 | 0.00 | 0.00 | 24 | 1008.4 |
| 20260504014610 | 24 | 107 | 0.0 | 0.0 | 0.00 | 0.00 | 0.00 | 23 | 1008.4 |
| 20260504013107 | 24 | 118 | 1.6 | 0.0 | 0.00 | 0.00 | 0.00 | 23 | 1008.5 |
| 20260504011605 | 25 | 124 | 0.0 | 0.0 | 0.00 | 0.00 | 0.00 | 24 | 1008.6 |
| 20260504010027 | 23 | 231 | 1.6 | 0.0 | 0.00 | 0.00 | 0.00 | 23 | 1008.6 |
| 20260504004605 | 24 | 242 | 3.2 | 0.0 | 0.00 | 0.00 | 0.00 | 25 | 1008.8 |
| 20260504003051 | 23 | 230 | 3.2 | 0.0 | 0.00 | 0.00 | 0.00 | 25 | 1008.9 |
| 20260504001606 | 23 | 182 | 4.8 | 0.0 | 0.00 | 0.00 | 0.00 | 26 | 1009.0 |
| 20260504000051 | 23 | 250 | 4.8 | 0.0 | 0.00 | 0.00 | 0.00 | 24 | 1009.1 |
| 20260503234549 | 23 | 244 | 6.4 | 0.0 | 0.00 | 0.00 | 0.00 | 25 | 1009.2 |
| 20260503233010 | 24 | 232 | 1.6 | 0.0 | 0.00 | 0.00 | 0.00 | 24 | 1009.3 |
| 20260503231501 | 23 | 216 | 3.2 | 0.0 | 0.00 | 0.00 | 0.00 | 23 | 1009.8 |
| 20260503230032 | 23 | 238 | 4.8 | 0.0 | 0.00 | 0.00 | 0.00 | 25 | 1009.8 |
| 20260503224509 | 24 | 232 | 3.2 | 0.0 | 0.00 | 0.00 | 0.00 | 25 | 1009.9 |
| 20260503223032 | 24 | 254 | 3.2 | 0.0 | 0.00 | 0.00 | 0.00 | 23 | 1010.1 |
| 20260503221606 | 23 | 173 | 3.2 | 0.0 | 0.00 | 0.00 | 0.00 | 26 | 1010.2 |
| 20260503220018 | 23 | 360 | 3.2 | 0.0 | 0.00 | 0.00 | 0.00 | 25 | 1010.3 |
| 20260503214616 | 22 | 236 | 4.8 | 0.0 | 0.00 | 0.00 | 0.00 | 30 | 1010.6 |
| 20260503213128 | 22 | 247 | 4.8 | 0.0 | 0.00 | 0.00 | 0.00 | 25 | 1010.7 |
| 20260503211621 | 22 | 69 | 1.6 | 0.0 | 0.00 | 0.00 | 0.00 | 27 | 1011.0 |
| 20260503210021 | 21 | 192 | 1.6 | 0.0 | 0.00 | 0.00 | 0.00 | 31 | 1010.9 |
| 20260503204507 | 21 | 219 | 6.4 | 0.0 | 0.00 | 0.00 | 0.00 | 31 | 1011.1 |
| 20260503203018 | 22 | 21 | 3.2 | 0.0 | 0.00 | 0.00 | 0.00 | 29 | 1011.5 |
| 20260503201508 | 22 | 188 | 6.4 | 0.0 | 0.00 | 0.00 | 0.00 | 31 | 1011.6 |
| 20260503200002 | 20 | 194 | 4.8 | 0.0 | 0.00 | 0.00 | 0.00 | 35 | 1011.8 |
| 20260503194513 | 21 | 225 | 4.8 | 0.0 | 0.00 | 0.00 | 0.00 | 31 | 1012.1 |
| 20260503193039 | 21 | 213 | 4.8 | 0.0 | 0.00 | 0.00 | 0.00 | 32 | 1012.4 |
| 20260503191621 | 20 | 135 | 4.8 | 0.0 | 0.00 | 0.00 | 0.00 | 32 | 1012.5 |
| 20260503190040 | 20 | 217 | 4.8 | 0.0 | 0.00 | 0.00 | 0.00 | 33 | 1012.4 |
| 20260503184510 | 20 | 219 | 3.2 | 0.0 | 0.00 | 0.00 | 0.00 | 35 | 1012.6 |
| 20260503183105 | 20 | 278 | 3.2 | 0.0 | 0.00 | 0.00 | 0.00 | 33 | 1012.8 |
| 20260503181611 | 20 | 217 | 4.8 | 0.0 | 0.00 | 0.00 | 0.00 | 33 | 1012.9 |
| 20260503180118 | 19 | 213 | 4.8 | 0.0 | 0.00 | 0.00 | 0.00 | 36 | 1013.0 |
| 20260503174618 | 19 | 255 | 1.6 | 0.0 | 0.00 | 0.00 | 0.00 | 36 | 1013.1 |
| 20260503173006 | 18 | 250 | 3.2 | 0.0 | 0.00 | 0.00 | 0.00 | 38 | 1013.2 |
| 20260503171617 | 18 | 205 | 4.8 | 0.0 | 0.00 | 0.00 | 0.00 | 39 | 1013.4 |
| 20260503170114 | 18 | 283 | 1.6 | 0.0 | 0.00 | 0.00 | 0.00 | 39 | 1013.7 |